| time (UTC) | temp C | wind direction | speed KPH | gust KPH | rain 1hr cm | rain 24hr cm | rain mn cm | humidity % | barometer mb |
| 20260510175016 | 14 | 255 | 6.4 | 17.7 | 0.00 | 0.66 | 0.51 | 72 | 1012.4 |
| 20260510174016 | 15 | 242 | 8.0 | 17.7 | 0.00 | 0.66 | 0.51 | 71 | 1012.1 |
| 20260510173036 | 15 | 256 | 6.4 | 17.7 | 0.00 | 0.66 | 0.51 | 71 | 1012.1 |
| 20260510172015 | 15 | 255 | 4.8 | 14.5 | 0.00 | 0.66 | 0.51 | 72 | 1012.2 |
| 20260510171015 | 15 | 260 | 4.8 | 16.1 | 0.00 | 0.66 | 0.51 | 71 | 1012.2 |
| 20260510170016 | 15 | 259 | 6.4 | 14.5 | 0.00 | 0.66 | 0.51 | 70 | 1012.3 |
| 20260510165016 | 15 | 266 | 6.4 | 17.7 | 0.00 | 0.66 | 0.51 | 71 | 1012.2 |
| 20260510164016 | 15 | 256 | 6.4 | 16.1 | 0.00 | 0.66 | 0.51 | 72 | 1012.0 |
| 20260510163016 | 14 | 268 | 6.4 | 14.5 | 0.00 | 0.66 | 0.51 | 75 | 1011.9 |
| 20260510162016 | 14 | 261 | 6.4 | 12.9 | 0.00 | 0.79 | 0.51 | 76 | 1012.3 |
| 20260510161016 | 15 | 266 | 4.8 | 12.9 | 0.00 | 0.79 | 0.51 | 76 | 1012.1 |
| 20260510160016 | 14 | 238 | 6.4 | 14.5 | 0.00 | 0.79 | 0.51 | 78 | 1012.2 |
| 20260510155016 | 13 | 252 | 4.8 | 12.9 | 0.00 | 0.79 | 0.51 | 80 | 1012.1 |
| 20260510154016 | 13 | 252 | 6.4 | 11.3 | 0.00 | 0.79 | 0.51 | 83 | 1012.1 |
| 20260510153016 | 13 | 259 | 3.2 | 9.7 | 0.03 | 0.79 | 0.51 | 85 | 1012.1 |
| 20260510152016 | 12 | 248 | 4.8 | 9.7 | 0.05 | 0.79 | 0.51 | 88 | 1012.1 |
| 20260510151016 | 12 | 264 | 4.8 | 9.7 | 0.20 | 0.79 | 0.51 | 88 | 1012.0 |
| 20260510150016 | 12 | 266 | 4.8 | 12.9 | 0.23 | 0.81 | 0.51 | 89 | 1012.3 |
| 20260510145016 | 12 | 274 | 9.7 | 17.7 | 0.25 | 0.84 | 0.51 | 87 | 1012.7 |
| 20260510144016 | 11 | 270 | 4.8 | 9.7 | 0.25 | 0.84 | 0.51 | 90 | 1012.6 |
| 20260510143016 | 12 | 270 | 6.4 | 14.5 | 0.23 | 0.81 | 0.48 | 89 | 1012.6 |
| 20260510142016 | 12 | 260 | 6.4 | 11.3 | 0.20 | 0.79 | 0.43 | 87 | 1012.5 |
| 20260510141016 | 12 | 230 | 3.2 | 11.3 | 0.05 | 0.64 | 0.30 | 84 | 1012.4 |
| 20260510140036 | 13 | 232 | 4.8 | 14.5 | 0.05 | 0.61 | 0.28 | 81 | 1012.3 |
| 20260510135016 | 13 | 249 | 4.8 | 14.5 | 0.00 | 0.58 | 0.23 | 76 | 1012.6 |
| 20260510134016 | 14 | 251 | 6.4 | 17.7 | 0.00 | 0.58 | 0.23 | 72 | 1012.4 |
| 20260510133016 | 14 | 255 | 8.0 | 14.5 | 0.00 | 0.58 | 0.23 | 74 | 1012.3 |
| 20260510132016 | 13 | 249 | 4.8 | 12.9 | 0.00 | 0.58 | 0.23 | 76 | 1012.4 |
| 20260510131036 | 13 | 258 | 6.4 | 12.9 | 0.00 | 0.58 | 0.23 | 78 | 1012.3 |
| 20260510130016 | 13 | 268 | 6.4 | 16.1 | 0.00 | 0.61 | 0.23 | 79 | 1012.3 |
| 20260510125016 | 12 | 258 | 4.8 | 12.9 | 0.00 | 0.66 | 0.23 | 81 | 1012.5 |
| 20260510124016 | 12 | 258 | 6.4 | 14.5 | 0.00 | 0.84 | 0.23 | 81 | 1012.5 |
| 20260510123016 | 12 | 264 | 8.0 | 22.5 | 0.00 | 0.89 | 0.23 | 81 | 1012.8 |
| 20260510122016 | 12 | 262 | 8.0 | 19.3 | 0.03 | 0.99 | 0.23 | 82 | 1012.9 |
| 20260510121016 | 12 | 263 | 8.0 | 17.7 | 0.05 | 0.99 | 0.23 | 83 | 1012.6 |
| 20260510120016 | 12 | 265 | 8.0 | 17.7 | 0.05 | 0.99 | 0.23 | 85 | 1012.8 |
| 20260510115036 | 11 | 257 | 4.8 | 19.3 | 0.05 | 0.99 | 0.23 | 86 | 1012.4 |
| 20260510114016 | 11 | 268 | 9.7 | 20.9 | 0.15 | 0.99 | 0.23 | 88 | 1012.7 |
| 20260510113016 | 11 | 268 | 11.3 | 27.4 | 0.15 | 0.99 | 0.23 | 88 | 1012.7 |
| 20260510112016 | 11 | 266 | 8.0 | 19.3 | 0.15 | 0.99 | 0.23 | 90 | 1012.7 |
| 20260510111016 | 11 | 260 | 4.8 | 14.5 | 0.15 | 0.97 | 0.20 | 89 | 1012.8 |
| 20260510110016 | 11 | 262 | 11.3 | 19.3 | 0.13 | 0.94 | 0.18 | 86 | 1012.5 |
| 20260510105036 | 12 | 271 | 11.3 | 25.7 | 0.13 | 0.94 | 0.18 | 80 | 1012.4 |
| 20260510104016 | 13 | 253 | 11.3 | 27.4 | 0.03 | 0.84 | 0.08 | 81 | 1011.8 |
| 20260510103016 | 15 | 241 | 8.0 | 24.1 | 0.03 | 0.84 | 0.08 | 78 | 1011.8 |
| 20260510102016 | 15 | 231 | 9.7 | 20.9 | 0.00 | 0.81 | 0.05 | 77 | 1011.9 |
| 20260510101016 | 14 | 245 | 8.0 | 22.5 | 0.00 | 0.81 | 0.05 | 78 | 1011.9 |
| 20260510100036 | 14 | 235 | 8.0 | 19.3 | 0.00 | 0.81 | 0.05 | 80 | 1012.0 |
| 20260510095056 | 13 | 238 | 9.7 | 20.9 | 0.00 | 0.81 | 0.05 | 81 | 1012.0 |
| 20260510094036 | 13 | 236 | 9.7 | 20.9 | 0.00 | 0.81 | 0.05 | 81 | 1012.2 |
| 20260510093016 | 13 | 248 | 6.4 | 19.3 | 0.00 | 0.81 | 0.05 | 83 | 1012.2 |
| 20260510092016 | 13 | 237 | 6.4 | 16.1 | 0.00 | 0.81 | 0.05 | 83 | 1012.5 |
| 20260510091016 | 13 | 243 | 4.8 | 11.3 | 0.00 | 0.81 | 0.05 | 86 | 1012.6 |
| 20260510090016 | 13 | 243 | 4.8 | 12.9 | 0.00 | 0.81 | 0.05 | 88 | 1012.8 |
| 20260510085016 | 12 | 237 | 6.4 | 14.5 | 0.00 | 0.81 | 0.05 | 88 | 1012.8 |
| 20260510084016 | 12 | 244 | 4.8 | 14.5 | 0.00 | 0.81 | 0.05 | 89 | 1012.8 |
| 20260510083016 | 12 | 242 | 3.2 | 8.0 | 0.00 | 0.81 | 0.05 | 90 | 1012.8 |
| 20260510082016 | 12 | 263 | 3.2 | 8.0 | 0.00 | 0.81 | 0.05 | 89 | 1013.0 |
| 20260510081036 | 12 | 257 | 4.8 | 9.7 | 0.00 | 0.81 | 0.05 | 89 | 1013.0 |
| 20260510080016 | 12 | 235 | 4.8 | 12.9 | 0.00 | 0.81 | 0.05 | 89 | 1013.0 |
| 20260510075016 | 12 | 242 | 4.8 | 14.5 | 0.00 | 0.81 | 0.05 | 90 | 1013.0 |
| 20260510074016 | 12 | 235 | 4.8 | 12.9 | 0.00 | 0.81 | 0.05 | 91 | 1013.1 |
| 20260510073016 | 11 | 242 | 4.8 | 12.9 | 0.00 | 0.81 | 0.05 | 91 | 1013.0 |
| 20260510072036 | 11 | 244 | 4.8 | 11.3 | 0.00 | 0.81 | 0.05 | 92 | 1013.0 |
| 20260510071016 | 11 | 244 | 3.2 | 8.0 | 0.00 | 0.81 | 0.05 | 92 | 1012.8 |
| 20260510070016 | 11 | 232 | 3.2 | 9.7 | 0.03 | 0.81 | 0.05 | 92 | 1012.8 |
| 20260510065056 | 11 | 225 | 3.2 | 6.4 | 0.03 | 0.81 | 0.05 | 93 | 1012.9 |
| 20260510064016 | 11 | 236 | 3.2 | 6.4 | 0.03 | 0.81 | 0.05 | 93 | 1012.9 |
| 20260510063016 | 10 | 242 | 3.2 | 4.8 | 0.03 | 0.81 | 0.05 | 93 | 1012.8 |
| 20260510062016 | 10 | 244 | 3.2 | 4.8 | 0.05 | 0.81 | 0.05 | 93 | 1012.6 |
| 20260510061016 | 10 | 255 | 1.6 | 4.8 | 0.05 | 0.81 | 0.05 | 93 | 1012.3 |
| 20260510060036 | 10 | 252 | 3.2 | 11.3 | 0.03 | 0.79 | 0.05 | 93 | 1012.4 |
| 20260510055017 | 10 | 230 | 3.2 | 8.0 | 0.03 | 0.79 | 0.05 | 93 | 1012.3 |
| 20260510054016 | 10 | 262 | 1.6 | 8.0 | 0.03 | 0.79 | 0.05 | 93 | 1012.3 |
| 20260510053016 | 10 | 240 | 4.8 | 11.3 | 0.03 | 0.79 | 0.05 | 93 | 1012.3 |
| 20260510052017 | 10 | 247 | 3.2 | 6.4 | 0.00 | 0.79 | 0.03 | 93 | 1012.2 |
| 20260510051016 | 10 | 244 | 3.2 | 8.0 | 0.00 | 0.79 | 0.03 | 93 | 1012.2 |
| 20260510050036 | 10 | 249 | 1.6 | 6.4 | 0.00 | 0.79 | 0.03 | 93 | 1012.1 |
| 20260510045016 | 10 | 204 | 0.0 | 3.2 | 0.00 | 0.79 | 0.03 | 93 | 1012.2 |
| 20260510044016 | 10 | 108 | 1.6 | 4.8 | 0.00 | 0.79 | 0.03 | 93 | 1012.2 |
| 20260510043016 | 9 | 256 | 0.0 | 3.2 | 0.00 | 0.79 | 0.03 | 93 | 1012.2 |
| 20260510042016 | 9 | 256 | 1.6 | 6.4 | 0.00 | 0.79 | 0.03 | 93 | 1012.4 |
| 20260510041017 | 9 | 108 | 0.0 | 3.2 | 0.00 | 0.79 | 0.03 | 93 | 1012.4 |
| 20260510040016 | 9 | 108 | 0.0 | 1.6 | 0.00 | 0.79 | 0.03 | 93 | 1012.4 |
| 20260510035036 | 10 | 108 | 0.0 | 3.2 | 0.00 | 0.79 | 0.03 | 93 | 1012.4 |
| 20260510034056 | 10 | 0.0 | 1.6 | 0.00 | 0.79 | 0.03 | 93 | 1012.3 | |
| 20260510033016 | 10 | 118 | 3.2 | 6.4 | 0.00 | 0.79 | 0.03 | 93 | 1012.4 |
| 20260510032016 | 10 | 249 | 1.6 | 4.8 | 0.00 | 0.79 | 0.03 | 94 | 1012.7 |
| 20260510031016 | 10 | 237 | 3.2 | 4.8 | 0.00 | 0.79 | 0.03 | 94 | 1012.8 |
| 20260510030036 | 10 | 242 | 1.6 | 4.8 | 0.00 | 0.79 | 0.03 | 94 | 1012.9 |
| 20260510025016 | 10 | 223 | 1.6 | 4.8 | 0.00 | 0.79 | 0.03 | 94 | 1012.8 |
| 20260510024016 | 10 | 251 | 1.6 | 3.2 | 0.00 | 0.79 | 0.03 | 94 | 1012.8 |
| 20260510023036 | 10 | 235 | 3.2 | 6.4 | 0.00 | 0.79 | 0.03 | 94 | 1012.8 |
| 20260510022016 | 10 | 233 | 3.2 | 8.0 | 0.00 | 0.79 | 0.03 | 94 | 1012.5 |
| 20260510021036 | 10 | 241 | 3.2 | 6.4 | 0.00 | 0.79 | 0.03 | 93 | 1012.4 |
| 20260510020016 | 10 | 252 | 1.6 | 6.4 | 0.00 | 0.79 | 0.03 | 93 | 1012.4 |
| 20260510015016 | 10 | 241 | 1.6 | 4.8 | 0.00 | 0.79 | 0.03 | 93 | 1012.3 |
| 20260510014017 | 10 | 250 | 1.6 | 4.8 | 0.00 | 0.79 | 0.03 | 93 | 1012.4 |
| 20260510013016 | 10 | 236 | 1.6 | 4.8 | 0.00 | 0.79 | 0.03 | 93 | 1012.3 |
| 20260510012016 | 10 | 232 | 1.6 | 4.8 | 0.00 | 0.79 | 0.03 | 93 | 1012.5 |
| 20260510011016 | 10 | 264 | 3.2 | 4.8 | 0.03 | 0.79 | 0.03 | 92 | 1012.6 |
| 20260510010016 | 10 | 244 | 1.6 | 4.8 | 0.03 | 0.79 | 0.03 | 92 | 1012.6 |
| 20260510005036 | 10 | 238 | 1.6 | 8.0 | 0.03 | 0.79 | 0.03 | 93 | 1012.9 |
| 20260510004016 | 10 | 242 | 3.2 | 8.0 | 0.03 | 0.79 | 0.03 | 92 | 1013.0 |
| 20260510003016 | 10 | 238 | 1.6 | 8.0 | 0.05 | 0.79 | 0.03 | 92 | 1013.0 |
| 20260510002016 | 11 | 262 | 3.2 | 6.4 | 0.05 | 0.79 | 0.03 | 92 | 1013.3 |
| 20260510001016 | 11 | 233 | 3.2 | 6.4 | 0.05 | 0.76 | 0.00 | 92 | 1013.3 |
| 20260510000016 | 11 | 232 | 1.6 | 6.4 | 0.05 | 0.76 | 0.76 | 92 | 1013.1 |
| 20260509235016 | 11 | 258 | 1.6 | 8.0 | 0.05 | 0.76 | 0.76 | 91 | 1013.3 |
| 20260509234016 | 11 | 261 | 3.2 | 12.9 | 0.05 | 0.76 | 0.76 | 91 | 1013.2 |
| 20260509233036 | 11 | 262 | 4.8 | 12.9 | 0.03 | 0.74 | 0.74 | 91 | 1013.3 |
| 20260509232016 | 11 | 275 | 3.2 | 6.4 | 0.00 | 0.71 | 0.71 | 92 | 1013.3 |
| 20260509231036 | 11 | 247 | 3.2 | 8.0 | 0.00 | 0.71 | 0.71 | 92 | 1013.4 |
| 20260509230016 | 11 | 265 | 3.2 | 6.4 | 0.00 | 0.71 | 0.71 | 92 | 1013.4 |
| 20260509225056 | 11 | 97 | 3.2 | 4.8 | 0.00 | 0.71 | 0.71 | 92 | 1013.1 |
| 20260509224016 | 11 | 0.0 | 1.6 | 0.00 | 0.71 | 0.71 | 92 | 1012.9 | |
| 20260509223036 | 11 | 0.0 | 4.8 | 0.00 | 0.71 | 0.71 | 92 | 1012.9 | |
| 20260509222016 | 11 | 115 | 1.6 | 4.8 | 0.00 | 0.71 | 0.71 | 91 | 1012.8 |
| 20260509221016 | 11 | 247 | 1.6 | 4.8 | 0.05 | 0.71 | 0.71 | 91 | 1012.7 |
| 20260509220016 | 11 | 261 | 1.6 | 3.2 | 0.13 | 0.71 | 0.71 | 91 | 1012.7 |
| 20260509215016 | 11 | 270 | 1.6 | 4.8 | 0.13 | 0.71 | 0.71 | 91 | 1012.4 |
| 20260509214016 | 11 | 252 | 1.6 | 6.4 | 0.13 | 0.71 | 0.71 | 91 | 1012.2 |
| 20260509213016 | 11 | 281 | 4.8 | 17.7 | 0.13 | 0.71 | 0.71 | 90 | 1012.2 |
| 20260509212016 | 11 | 276 | 8.0 | 20.9 | 0.13 | 0.71 | 0.71 | 89 | 1012.3 |
| 20260509211016 | 11 | 277 | 9.7 | 25.7 | 0.05 | 0.66 | 0.66 | 86 | 1012.5 |
| 20260509210016 | 12 | 294 | 11.3 | 27.4 | 0.00 | 0.61 | 0.61 | 81 | 1012.3 |
| 20260509205036 | 13 | 267 | 14.5 | 25.7 | 0.00 | 0.61 | 0.61 | 76 | 1012.0 |
| 20260509204016 | 13 | 234 | 8.0 | 19.3 | 0.00 | 0.61 | 0.61 | 75 | 1011.1 |
| 20260509203036 | 13 | 240 | 9.7 | 24.1 | 0.00 | 0.61 | 0.61 | 75 | 1010.9 |
| 20260509202016 | 14 | 235 | 9.7 | 24.1 | 0.00 | 0.61 | 0.61 | 75 | 1010.6 |
| 20260509201016 | 14 | 243 | 9.7 | 22.5 | 0.00 | 0.61 | 0.61 | 75 | 1010.3 |
| 20260509200016 | 14 | 241 | 9.7 | 19.3 | 0.00 | 0.61 | 0.61 | 76 | 1010.1 |
| 20260509195016 | 14 | 228 | 9.7 | 20.9 | 0.00 | 0.61 | 0.61 | 76 | 1010.0 |
| 20260509194016 | 14 | 240 | 8.0 | 19.3 | 0.00 | 0.61 | 0.61 | 76 | 1009.8 |
| 20260509193036 | 15 | 251 | 6.4 | 16.1 | 0.00 | 0.61 | 0.61 | 76 | 1009.7 |
| 20260509192056 | 15 | 239 | 4.8 | 12.9 | 0.00 | 0.61 | 0.61 | 76 | 1009.6 |
| 20260509191016 | 15 | 235 | 4.8 | 11.3 | 0.00 | 0.61 | 0.61 | 76 | 1009.6 |
| 20260509190016 | 15 | 258 | 3.2 | 14.5 | 0.00 | 0.61 | 0.61 | 76 | 1009.6 |
| 20260509185016 | 16 | 260 | 4.8 | 11.3 | 0.00 | 0.61 | 0.61 | 76 | 1009.4 |
| 20260509184016 | 16 | 242 | 4.8 | 12.9 | 0.00 | 0.61 | 0.61 | 76 | 1009.4 |
| 20260509183016 | 16 | 245 | 4.8 | 9.7 | 0.00 | 0.61 | 0.61 | 77 | 1009.5 |
| 20260509182016 | 17 | 237 | 4.8 | 11.3 | 0.00 | 0.61 | 0.61 | 75 | 1009.6 |
| 20260509181016 | 17 | 247 | 1.6 | 6.4 | 0.00 | 0.61 | 0.61 | 77 | 1009.6 |
| 20260509180016 | 16 | 227 | 4.8 | 12.9 | 0.00 | 0.61 | 0.61 | 77 | 1009.5 |